Location: *
(41.2395°S, 157.0109°W)
Time: 04:45:05
(UTC+00:00)

Daily predictions for brighter satellites

Satellite Brightness Start Highest point End
(mag) Time Altitude Azimuth Time Altitude Azimuth Time Altitude Azimuth
Meteor 2-6 Rocket 4.4 05:13:33 10° N 05:19:32 85° E 05:25:36 10° S
ATLAS 5 CENTAUR R/B 4.3 05:19:22 10° S 05:21:43 12° SSE 05:23:57 10° SE
Cosmos 332 Rocket 3.8 05:18:05 10° SSW 05:22:55 87° WNW 05:27:41 10° NNE
Meteor 1-14 Rocket 4.3 05:18:48 10° S 05:24:21 60° ESE 05:29:51 10° NNE
Cosmos 1110 Rocket 4.1 05:19:39 10° NNW 05:24:58 86° WSW 05:30:19 10° SSE
CZ-4 R/B 4.3 05:21:30 10° SSE 05:25:32 66° E 05:29:30 10° N
SJ-6F 4.3 05:22:04 10° SSE 05:26:06 71° ENE 05:30:01 10° N
SAR-Lupe-4 4.1 05:24:06 10° SSE 05:27:28 36° E 05:30:48 10° NNE
Cosmos 1536 3.0 05:24:53 10° SSW 05:28:37 69° W 05:32:18 10° N
Meteor 1-27 Rocket 4.5 05:23:40 10° NNE 05:28:45 32° E 05:33:48 10° SSE
Cosmos 2221 2.4 05:25:56 10° N 05:30:05 73° E 05:34:19 10° SSE
Cosmos 1655 Rocket 4.1 05:24:51 10° S 05:31:06 59° E 05:37:20 10° NNE
ATLAS 2AS CENTAUR R/B 3.4 05:31:58 10° N 05:38:08 34° ENE 05:44:29 10° SE
Thor Agena Rocket 4.2 05:33:43 10° S 05:38:48 61° WSW 05:43:54 10° NNW
ARIANE 5 R/B 2.9 05:33:55 10° S 05:39:07 73° WSW 05:44:10 10° NNW
SL-08 R/B 3.5 05:36:20 10° NNE 05:41:10 60° ESE 05:46:05 10° S
Cosmos 1833 Rocket 2.8 05:42:30 10° NNW 05:48:09 86° WSW 05:53:53 10° SSE
Spot 4 Rocket 4.3 05:43:47 10° SSE 05:48:47 46° E 05:53:42 10° N
YAOGAN 11 4.2 05:46:09 10° NNE 05:50:18 53° ESE 05:54:33 10° S
Meteor 1-11 Rocket 3.7 05:47:05 10° S 05:52:44 63° ESE 05:58:13 10° NNE
CARTOSAT-1 3.5 05:48:36 10° SSE 05:52:50 58° E 05:57:00 10° N
CZ-2D R/B 3.3 05:51:07 10° SSE 05:55:08 64° ENE 05:59:10 10° N
Meteor 2-20 Rocket 4.4 05:51:54 10° N 05:57:42 82° W 06:03:31 10° S
Meteor 1-10 Rocket 4.4 05:54:56 10° N 06:00:51 88° W 06:06:55 10° S
Cosmos 1992 Rocket 4.3 05:57:28 10° N 06:02:22 43° ENE 06:07:19 10° SSE
Resurs 01 Rocket 1.7 05:59:34 10° SSE 06:03:59 56° E 06:08:20 10° N
Cosmos 2082 Rocket 3.0 06:01:48 10° NNE 06:06:25 26° ENE 06:11:02 10° SE
SJ-7 4.1 06:08:29 10° SSE 06:12:15 88° WSW 06:15:56 10° NNW
Cosmos 1244 Rocket 4.4 06:07:12 10° S 06:13:25 72° E 06:19:33 10° NNE
NOAA 6 3.9 06:08:20 10° SSE 06:13:33 73° ENE 06:18:43 10° N
Atlas Centaur 2 4.3 06:07:45 10° WNW 06:14:07 27° NNW 06:19:32 14° NNE
PSLV R/B 3.3 06:10:22 10° SSE 06:14:33 77° ENE 06:18:39 10° N
SL-24 R/B 4.4 06:10:33 10° NNE 06:15:47 84° W 06:20:20 10° SSW
YAOGAN 1 3.6 06:12:51 10° S 06:17:02 48° WSW 06:21:10 10° NNW
Cosmos 1697 Rocket 2.6 06:11:22 10° SSW 06:17:05 83° ESE 06:21:18 19° NNE
Cosmos 1980 Rocket 2.7 06:14:30 10° S 06:19:50 40° ESE 06:21:46 30° E
Cosmos 1842 Rocket 3.8 06:21:43 31° NE 06:23:19 46° E 06:27:34 10° SSE
USA 59 Rocket 4.3 06:22:07 10° W 06:24:06 11° W 06:26:00 10° WNW
SL-16 R/B 4.2 06:22:40 10° SSE 06:24:40 12° SE 06:25:36 11° SE
SJ-6B 2.4 06:22:08 10° SSE 06:25:37 64° E 06:26:28 45° NNE
Cosmos 1066 Rocket 4.3 06:22:55 15° NNE 06:27:07 47° E 06:32:26 10° SSE
Tiangong -1.5 06:25:52 10° W 06:28:57 45° NNW 06:28:59 45° NNW
Centaur D-1AR AC-40 4.4 06:18:16 10° WNW 06:29:41 20° NNW 06:33:25 13° NNE
Cosmos 1238 Rocket 2.9 06:28:55 10° NNW 06:32:09 61° W 06:35:50 10° S
SPOT 5 3.5 06:31:06 10° SSE 06:35:00 37° ESE 06:35:00 37° ESE
Cosmos 1271 Rocket 3.3 06:32:44 10° NNW 06:36:10 51° WSW 06:39:37 10° S
Meteor 2-4 Rocket 3.6 06:34:53 10° N 06:40:18 90° WSW 06:45:56 10° S
ATLAS 3B R/B 3.6 06:39:41 10° SSW 06:45:04 28° SE 06:46:30 26° ESE
Cosmos 2369 4.4 06:40:37 10° S 06:45:53 35° ESE 06:46:19 35° ESE
CSL-04 Rocket 3.8 06:51:27 10° SSE 06:56:03 51° ESE 06:56:03 51° ESE
IRIDIUM 104 4.2 06:56:56 10° S 07:02:14 69° E 07:02:17 69° E
ATLAS 5 CENTAUR R/B 2.8 07:00:37 10° SSW 07:05:46 37° SE 07:05:46 37° SE
IRIDIUM 114 4.2 07:06:04 10° S 07:11:23 84° E 07:11:25 84° E
Meteor 1-18 Rocket 4.1 07:09:43 43° NNW 07:11:42 87° WSW 07:17:29 10° S
Milstar 3 4.3 07:08:50 10° WNW 07:17:10 43° N 07:20:06 38° NNE
Cosmos 1818 3.5 07:12:15 10° SSW 07:17:27 80° S 07:17:27 80° S
Cosmos 839 Rocket 4.0 07:13:03 10° NNW 07:20:25 75° ENE 07:26:43 10° SE
IRIDIUM 103 4.3 07:15:13 10° S 07:20:32 80° W 07:20:34 80° W
Sich 1 4.1 07:16:41 10° S 07:19:25 39° SSW 07:19:25 39° SSW
Cosmos 1709 Rocket 3.9 07:17:39 10° S 07:23:59 90° E 07:24:37 74° N
USA 81 4.2 07:20:03 10° S 07:25:22 68° W 07:25:38 67° WNW
ATLAS 2AS CENTAUR R/B 3.4 07:21:48 10° NW 07:28:44 54° SW 07:35:56 10° SSE
Terra 4.2 07:24:19 10° SSE 07:24:48 13° SSE 07:24:48 13° SSE
Meteor 2-10 Rocket 4.0 07:30:10 10° SSW 07:35:46 62° W 07:36:05 61° WNW
USA 229 DEB 3.6 07:33:23 10° SSW 07:39:07 63° S 07:39:07 63° S
USA 229 3.6 07:33:28 10° SSW 07:39:10 62° S 07:39:10 62° S
Cosmos 2219 Rocket 4.4 07:40:04 10° SSE 07:41:52 14° SSE 07:41:52 14° SSE
Cosmos 2315 Rocket 4.3 07:42:28 52° NW 07:43:51 66° W 07:50:13 10° S
Cosmos 2333 Rocket 3.6 07:44:34 10° S 07:48:04 30° SSE 07:48:04 30° SSE
Cosmos 2082 Rocket 3.2 07:44:46 10° NW 07:50:11 44° WSW 07:55:38 10° SSE
Cosmos 1980 Rocket 3.7 07:58:49 10° SW 08:03:32 29° WNW 08:03:32 29° WNW
CZ-4 R/B 4.5 08:06:38 10° SSW 08:06:38 10° SSW 08:06:38 10° SSW
SL-16 R/B 3.5 08:04:12 10° SSW 08:07:25 34° S 08:07:25 34° S
USA 215 3.8 08:12:46 52° S 08:12:46 52° S 08:18:15 10° SW
Cosmos 2322 Rocket 4.0 08:15:04 10° SSW 08:17:42 26° S 08:17:42 26° S
Cosmos 2360 Rocket 4.1 08:26:59 10° SSW 08:29:17 24° S 08:29:17 24° S
ATLAS 3B R/B 3.6 08:29:48 10° SW 08:33:44 39° SW 08:33:44 39° SW
ATLAS 5 CENTAUR R/B 4.5 08:43:27 10° SW 08:45:00 17° WSW 08:45:00 17° WSW
ACS3 Solar Sail 4.1 10:46:51 18° S 10:46:51 18° S 10:48:22 10° S
